Home > Weather > Seattle > Past weeks

Flag for USA Weather for the Past 2 Weeks in Seattle, Washington, USA

Now
65 °F

Partly sunny.


Feels Like: 65 °F
Forecast: 56 / 70 °F
Wind: 6 mph from Southeast

Location: Seattle Boeing Field

Current Time: May 3, 2016 at 11:41:24 AM

Latest Report: May 3, 2016 at 10:53 AM


Visibility: 10 mi

Pressure: 30.04 "Hg

Humidity: 66%

Dew Point: 53 °F

Location of SeattleLocation

Historic Weather in Seattle — Graph

°F

Seattle Temperature Yesterday

Maximum temperature yesterday: 86 °F (at 2:53 PM)
Minimum temperature yesterday: 54 °F (at 5:53 AM)
Average temperature yesterday: 71 °F

High & Low Weather Summary for the Past Weeks

 TemperatureHumidityPressure
High88 °F (Apr 18, 3:53 PM)100% (Apr 25, 6:53 AM)30.38 "Hg (Apr 25, 6:53 AM)
Low43 °F (Apr 26, 3:53 AM)26% (May 2, 2:53 PM)29.61 "Hg (Apr 22, 7:53 AM)
Average60 °F66%30.01 "Hg
* Reported Apr 18 9:53 AM — May 3 9:53 AM, Seattle, Weather by CustomWeather, © 2016

Note: Actual official high and low records may vary slightly from our data, if they occured in-between our weather recording intervals... More about our weather records

Advertising

Seattle Weather History for the Previous 24 Hours

Scroll right to see more
 ConditionsComfort  
Time TempWeatherWind HumidityBarometerVisibility
9:53 AM
Tue, May 3
63 °FPartly sunny.6 mph70%30.04 "Hg10 mi
8:53 AM61 °FPartly sunny.No wind75%30.04 "Hg10 mi
7:53 AM59 °FPartly sunny.No wind81%30.03 "Hg10 mi
6:53 AM58 °FPartly sunny.8 mph84%30.02 "Hg10 mi
5:53 AM58 °FPassing clouds.7 mph81%30.01 "Hg10 mi
4:53 AM59 °FPassing clouds.9 mph78%30.00 "Hg10 mi
3:53 AM60 °FPassing clouds.7 mph75%29.99 "Hg10 mi
2:53 AM63 °FClear.No wind54%29.97 "Hg10 mi
1:53 AM64 °FClear.No wind52%29.96 "Hg10 mi
12:53 AM66 °FClear.No wind47%29.96 "Hg10 mi
11:53 PM
Mon, May 2
68 °FClear.5 mph42%29.96 "Hg10 mi
10:53 PM69 °FClear.6 mph36%29.95 "Hg10 mi
9:53 PM70 °FClear.8 mph39%29.94 "Hg10 mi
8:53 PM74 °FScattered clouds.6 mph36%29.90 "Hg10 mi
7:53 PM78 °FScattered clouds.5 mph33%29.88 "Hg10 mi
6:53 PM85 °FScattered clouds.7 mph26%29.85 "Hg10 mi
5:53 PM86 °FSunny.7 mph26%29.86 "Hg10 mi
4:53 PM86 °FScattered clouds.7 mph26%29.87 "Hg10 mi
3:53 PM86 °FScattered clouds.5 mph27%29.88 "Hg10 mi
2:53 PM86 °FScattered clouds.5 mph26%29.90 "Hg10 mi
1:53 PM84 °FSunny.6 mph27%29.91 "Hg10 mi
12:53 PM80 °FPassing clouds.7 mph31%29.93 "Hg10 mi
11:53 AM78 °FScattered clouds.6 mph36%29.94 "Hg10 mi
Weather by CustomWeather, © 2016

See weather overviewHow to use our weather pages